www.pogodaiklimat.ru

Погода и климат >> Архив погоды >> Филиппины >> Катбалоган


ПОГОДА в Катбалогане

  • Прогноз погоды в Катбалогане
  • Монитор погоды в Катбалогане

АРХИВ ПОГОДЫ в Катбалогане

Время (UTC), дата Ветер
(напр.,м/с)
 
Видим.   Явления Облачность Т
(С)
Тd
(С)
f
(%)
Тe
(С)
Тes
(С)
Комфортность P
(гПа)
Po
(гПа)
Тmin
(С)
Tmax
(С)
R
(мм)
R24
(мм)
S
(см)
03 12.09 З 1 22 км в посл. час ливневой дождь 10/5 450 м
[Cu Sc Cs]
+28.3 +24.9 82 +41 +50 опасность
перегрева
1006.5 1005.9 0.1
06 12.09 З 2 22 км {ливн. осадки} 10/8 450 м
[Cb cap Cs]
+28.6 +25.3 82 +42 +44 опасность
перегрева
1003.5 1002.9 0.2
09 12.09 З 1 20 км 10/4 450 м
[Cu Sc Cs]
+28.9 +24.8 79 +41 +42 опасность
перегрева
1003.6 1003.0
12 12.09 С 1 15 км 10/8 450 м
[Cu Sc Cs]
+27.8 +23.9 79 +38 +38 очень
душно
1005.1 1004.5 +29.0
15 12.09 Ю 1 15 км {ливн. осадки} 10/6 450 м
[Cu Sc Cs]
+27.7 +24.8 84 +39 +39 очень
душно
1005.8 1005.2
18 12.09 С 1 15 км {ливн. осадки} 10/6 450 м
[Cu Sc Cs]
+26.0 +24.8 93 +37 +37 очень
душно
1004.3 1003.7 2
21 12.09 ЮВ 1 15 км слаб. ливневой дождь 10/6 450 м
[Cu Sc As op]
+26.0 +24.7 93 +37 +37 очень
душно
1004.7 1004.1 1
00 13.09 Ю 1 26 км {ливн. осадки} 9/4 450 м
[Cu Sc Ac trans]
+27.6 +25.1 86 +40 +42 очень
душно
1006.6 1006.0 +25.2 4
03 13.09 Ю 3 26 км 10/6 450 м
[Cu Sc Cs]
+29.6 +24.3 73 +41 +47 опасность
перегрева
1006.8 1006.2
06 13.09 З 1 26 км 10/6 450 м
[Cu Sc Cs]
+31.0 +24.0 66 +43 +48 опасность
перегрева
1004.9 1004.3
09 13.09 штиль 0 25 км 10/6 450 м
[Cu Sc Cs]
+28.3 +24.9 82 +41 +41 опасность
перегрева
1005.8 1005.2
12 13.09 Ю 2 15 км 10/6 450 м
[Cu Sc Cs]
+28.7 +24.8 79 +41 +41 опасность
перегрева
1007.9 1007.3 +32.5
15 13.09 штиль 0 15 км {ливн. осадки} 9/5 450 м
[Cu Sc Ac As]
+27.2 +25.1 88 +39 +39 очень
душно
1008.4 1007.8 1
18 13.09 Ю 1 15 км {гроза, дождь} 10/6 450 м
[Cu Sc Cs]
+26.2 +24.9 93 +37 +37 очень
душно
1006.8 1006.2 7
21 13.09 Ю 3 20 км {ливн. осадки} 9/5 450 м
[Cu Sc Cs]
+27.3 +24.4 84 +38 +38 очень
душно
1006.9 1006.3 0.4
00 14.09 ЮЗ 3 28 км {ливн. осадки} 9/6 450 м
[Cu Sc Cs]
+28.3 +24.0 78 +39 +41 очень
душно
1009.3 1008.7 +26.3 8
03 14.09 ЮЗ 2 28 км 9/5 450 м
[Cu Sc Cs]
+31.4 +24.2 66 +44 +52 опасность
перегрева
1008.9 1008.3
06 14.09 З 2 28 км слаб. ливневой дождь 9/5 450 м
[Cu Sc Cs]
+28.4 +24.6 80 +40 +46 очень
душно
1007.4 1006.8 1
09 14.09 ЮЗ 1 26 км {ливн. осадки} 9/6 450 м
[Cu Sc Ac As]
+29.0 +22.5 68 +38 +38 очень
душно
1007.5 1006.9 0.2
12 14.09 ЮЗ 1 16 км {ливн. осадки} 10/6 450 м
[Cu Sc Cs]
+28.6 +24.1 77 +40 +40 очень
душно
1009.8 1009.2 +33.0 0.2
15 14.09 ЮЗ 2 16 км 10/5 450 м
[Cu Sc Cs]
+28.9 +24.0 75 +40 +40 очень
душно
1010.1 1009.5
18 14.09 штиль 0 15 км {ливн. осадки} 10/10 300 м
[Cu med, cong Ac As Ci sp]
+27.7 +24.4 82 +39 +39 очень
душно
1009.2 1008.6 0.4
21 14.09 Ю 1 16 км 10/5 450 м
[Cu Sc Cs]
+28.0 +22.6 73 +37 +37 очень
душно
1008.9 1008.3
00 15.09 штиль 0 26 км 10/8 480 м
[Cu Sc Cs]
+28.7 +24.3 77 +40 +42 очень
душно
1010.8 1010.2 +27.0 2
03 15.09 штиль 0 26 км 5/1 480 м
[Cu med, cong Ac trans Ci sp]
+31.4 +25.1 69 +45 +65 опасность
перегрева
1009.8 1009.2
06 15.09 СЗ 3 26 км 8/4 480 м
[Cu med, cong Cs]
+32.0 +24.3 64 +44 +51 опасность
перегрева
1007.8 1007.2
09 15.09 СЗ 4 26 км 9/5 480 м
[Cu Sc Ac trans]
+30.2 +24.7 72 +43 +43 опасность
перегрева
1007.9 1007.3
12 15.09 СЗ 1 18 км 10/5 480 м
[Cu Sc Cs]
+30.0 +23.6 69 +41 +41 опасность
перегрева
1009.1 1008.5 +33.0
15 15.09 штиль 0 16 км 10/5 480 м
[Cu Sc Cs]
+29.4 +23.7 71 +40 +40 очень
душно
1009.3 1008.7
18 15.09 ЮЗ 1 16 км 10/5 480 м
[Cu Sc Cs]
+28.8 +23.7 74 +39 +39 очень
душно
1007.4 1006.8
21 15.09 ЮЗ 2 17 км 10/5 480 м
[Cu Sc Cs]
+28.6 +23.5 74 +39 +39 очень
душно
1007.6 1007.0
00 16.09 Ю 2 23 км 10/1 450 м
[Cu hum Cs]
+29.6 +24.3 73 +41 +46 опасность
перегрева
1009.5 1008.9 +27.6
03 16.09 ЮЗ 2 25 км 10/4 480 м
[Cu med, cong Ac trans Cs]
+32.1 +24.1 63 +44 +50 опасность
перегрева
1007.7 1007.1
06 16.09 З 4 25 км 10/1 450 м
[Cu hum Ac trans Cs]
+32.1 +25.2 67 +46 +50 опасность
перегрева
1005.4 1004.8
09 16.09 З 1 23 км 10/5 480 м
[Cu Sc Cs]
+31.0 +24.4 68 +43 +44 опасность
перегрева
1005.5 1004.9
12 16.09 ЮЗ 2 15 км 10/5 480 м
[Cu Sc Cs]
+30.4 +23.7 67 +41 +41 опасность
перегрева
1007.4 1006.8 +33.8
15 16.09 Ю 1 15 км 6/6 480 м
[Cu med, cong]
+28.6 +24.6 79 +41 +41 опасность
перегрева
1008.1 1007.5
18 16.09 15 км н/о +28.1 +24.5 81 +40 +40 очень
душно
1006.8 1006.2
21 16.09 Ю 2 20 км 5/5 480 м
[Cu med, cong]
+28.8 +23.2 72 +39 +39 очень
душно
1007.8 1007.2
00 17.09 Ю 2 23 км дым {туман} [макс. диам. градин 32 мм] 10/1 480 м
[Cu med, cong Ac trans Cs]
+29.4 +24.1 73 +41 +44 опасность
перегрева
1009.0 1008.4 +27.2
03 17.09 Ю 3 22 км дым {туман} 10/5 480 м
[Cu med, cong Cs]
+32.2 +23.9 62 +44 +51 опасность
перегрева
1008.5 1007.9
06 17.09 Ю 2 18 км дым {туман} 10/5 480 м
[Cu Sc Cs]
+33.1 +24.5 61 +46 +52 опасность
перегрева
1006.7 1006.1
09 17.09 З 1 18 км дым {туман} 10/6 480 м
[Cu med, cong Cs]
+31.4 +25.4 71 +46 +46 опасность
перегрева
1007.1 1006.5
12 17.09 С 1 12 км дым {туман} 10/5 480 м
[Cu med, cong Cs]
+29.0 +25.5 81 +43 +43 опасность
перегрева
1009.1 1008.5 +34.2
15 17.09 С 1 15 км дым {туман} 10/5 450 м
[Cu Sc Cs]
+28.4 +25.2 83 +41 +41 опасность
перегрева
1010.3 1009.7
18 17.09 Ю 3 15 км дым {туман} 10/5 450 м
[Cu Sc Cs]
+29.0 +24.0 74 +40 +40 очень
душно
1008.3 1007.7
21 17.09 Ю 3 15 км дым {туман} 10/5 450 м
[Cu Sc Cs]
+28.8 +22.6 69 +38 +38 очень
душно
1008.4 1007.8
00 18.09 В 1 16 км дым {туман} 10/5 480 м
[Cu Sc Cs]
+29.0 +24.2 75 +40 +44 очень
душно
1011.4 1010.8 +28.0
03 18.09 Ю 3 17 км дым {туман} 10/5 480 м
[Cu Sc Cs]
+32.5 +23.2 58 +43 +50 опасность
перегрева
1011.0 1010.4
06 18.09 Ю 3 17 км дым {туман} 10/5 480 м
[Cu Sc Cs]
+32.4 +22.9 57 +42 +47 опасность
перегрева
1008.3 1007.7
09 18.09 Ю 1 17 км дым {туман} 10/6
[Cu Sc Ac trans Cs]
+31.6 +24.2 65 +44 +44 опасность
перегрева
1009.0 1008.4
12 18.09 С 1 14 км дым {туман} 10/8 450 м
[Cu Sc Cs]
+29.7 +25.0 76 +43 +43 опасность
перегрева
1010.2 1009.6 +33.8
15 18.09 штиль 0 15 км дым {туман} 9/5 450 м
[Cu Sc Cs]
+27.8 +24.8 84 +40 +40 очень
душно
1010.3 1009.7
18 18.09 З 1 15 км дым {туман} 9/5 450 м
[Cu Sc Cs]
+28.7 +24.0 76 +40 +40 очень
душно
1009.3 1008.7
21 18.09 Ю 2 15 км дым {туман} 9/5 450 м
[Cu Sc Cs]
+28.7 +23.2 72 +39 +39 очень
душно
1009.4 1008.8

 

Местоположение метеостанции Катбалоган (Филиппины): широта 11.78 долгота 124.88 высота над уровнем моря 5 м.

В архиве по умолчанию представлена погода в Катбалогане за последнюю неделю. Архивные данные за месяц целиком и за предыдущие месяцы, начиная с января 2011 года, Вы можете получить, выбрав интересующий диапазон дат из раскрывающегося списка и нажав кнопку "Ввод!".


*Определитесь, кто Вы:
робот инопланетянин человек

Внимание! Время в таблицах - всемирное. Для получения местного времени необходимо прибавить поправку, которая равна 8 ч.

Смотрите также архив погоды в соседних городах и на ближайших метеорологических станциях:

Погода в Таклобане (Филиппины) (60 км)
Погода в Боронган Сити (Филиппины) (62 км)
Погода в Катармане (Филиппины) (85 км)
Погода в Гуиуане (Филиппины) (125 км)
Погода в Масбате (Филиппины) (153 км)
Погода в Маасине (Филиппины) (184 км)
Погода в Мактане (Филиппины) (193 км)
Погода в Легаспи (Филиппины) (195 км)
Погода в Вираке (Филиппины) (212 км)
Погода в Серигао Сити (Филиппины) (230 км)

Пояснения к столбцам:

Ветер - указаны скорость ветра в м/с - средняя за 10 мин, порывы в срок и между сроками (в фигурных скобках) и направление, откуда дует ветер: С - северный, СВ - северо-восточный, В - восточный, ЮВ - юго-восточный, Ю - южный, ЮЗ - юго-западный, З - западный, СЗ - северо-западный.
Видимость - горизонтальная дальность видимости в метрах или километрах. При видимости от 1 до 10 км при отсутствии осадков обычно наблюдается дымка, при ухудшении видимости до 1 км и менее - туман. В сухую погоду видимость может ухудшаться дымом, пылью или мглою.
Явления - указаны атмосферные явления, наблюдавшиеся в срок или в последний час перед сроком; фигурными скобками обозначены явления, наблюдавшиеся между сроками (за 1-3 часа до срока); квадратными скобками обозначены град или гололедные отложения с указанием их диаметра в мм.
Облачность - указаны через наклонную черту общая и нижняя облачность в баллах и высота нижней границы облаков в метрах; квадратными скобками обозначены формы облаков: Ci - перистые, Cs - перисто-слоистые, Cc - перисто-кучевые, Ac - высококучевые, As - высокослоистые, Sc - слоисто-кучевые, Ns - слоисто-дождевые, Cu - кучевые, Cb - кучево-дождевые. Подробнее классификацию облаков см. в Атласе облаков (PDF).
T - Температура воздуха - температура, измеренная на высоте 2 м над землей.
Td - Температура точки росы - температура, при понижении до которой содержащийся в воздухе водяной пар достигнет насыщения.
f - Относительная влажность воздуха - влажноcть воздуха, измеренная на высоте 2 м над землей.
Te - Эффективная температура - температура, которую ощущает одетый по сезону человек в тени. Характеристика душности погоды. При расчете учитывается влияние влажности воздуха и скорости ветра на теплоощущения человека.
Tes - Эффективная температура на солнце - температура, которую ощущает человек, с поправкой на солнечный нагрев. Характеристика знойности погоды. Зависит от высоты солнца над горизонтом, облачности и скорости ветра. Ночью, в пасмурную погоду, а также при ветре 12 м/с и более поправка равна нулю.
P - Атмосферное давление - приведенное к уровню моря атмосферное давление.
Po - Атмосферное давление - измеренное на уровне метеостанции атмосферное давление.
Tmin - Минимальная температура - минимум температуры воздуха на высоте 2 м над землей.
Tmax - Максимальная температура - максимум температуры воздуха на высоте 2 м над землей.
R - Количество осадков - Количество выпавших осадков за период времени, мм. При наведении курсора мыши на число - период времени, за который выпало указанное количество осадков.
R24 - Количество осадков - Количество выпавших осадков за 24 часа, мм.
S - Снежный покров - Высота снежного покрова, см. При наведении курсора мыши на число - состояние снежного покрова и степень покрытия местности в баллах.